{"data":{"norad_id":69573,"epoch":"2026-09-20T00:46:43.406976Z","epoch_age_seconds":69329,"freshness":"FRESH","line1":"1 69573U 26137B   26263.03244684 -.00000076  00000+0  10293-3 0  9990","line2":"2 69573  50.0001 255.8990 0000279 353.8059   6.2810 13.29328271 12959","mean_motion":13.29328271,"eccentricity":2.79e-5,"inclination_deg":50.0001,"raan_deg":255.899,"arg_perigee_deg":353.8059,"mean_anomaly_deg":6.281,"bstar":0.00010293,"rev_number":1295,"period_min":108.32538744676,"perigee_km":1149.0879832507,"apogee_km":1149.5080141236,"semimajor_km":7527.4349986871,"source":"CELESTRAK","updated_at":"2026-09-20T09:00:24.987457Z"}}